When you browse on this site, cookies collect data to enhance your experience and personalize the content and advertising you see.
Visit our Privacy Policy to learn more. By continuing to use the site, you agree to this use of cookies and data.
  • In Czech Republic
  • List of Countries
  • For 7 days
  • Water Temperature
  • Satellite Maps
  • Weather Map
  • Weather Widgets
  • user-avatar
    Login

    Hourly Weather Graz

    Today, 22 May, Wednesday

    Time Temperature Precipitation Wind Pressure Humidity
    00:00 +12°C° 0 mm 1 mps 720 mmHg 90%
    01:00 +11°C° 0 mm 1 mps 720 mmHg 89%
    02:00 +11°C° 0.1 mm 1 mps 720 mmHg 89%
    03:00 +11°C° 0.1 mm 1 mps 720 mmHg 89%
    04:00 +11°C° 0.1 mm 1 mps 720 mmHg 89%
    05:00 +12°C° 0 mm 2 mps 721 mmHg 84%
    06:00 +13°C° 0 mm 2 mps 721 mmHg 79%
    07:00 +15°C° 0 mm 2 mps 721 mmHg 74%
    08:00 +15°C° 0 mm 2 mps 722 mmHg 70%
    09:00 +16°C° 0 mm 2 mps 722 mmHg 66%
    10:00 +17°C° 0 mm 2 mps 722 mmHg 62%
    11:00 +19°C° 0 mm 2 mps 722 mmHg 56%
    12:00 +20°C° 0 mm 2 mps 723 mmHg 51%
    13:00 +23°C° 0 mm 2 mps 723 mmHg 45%
    14:00 +21°C° 0.2 mm 2 mps 723 mmHg 48%
    15:00 +21°C° 0.2 mm 2 mps 723 mmHg 51%
    16:00 +20°C° 0.2 mm 2 mps 723 mmHg 55%
    17:00 +18°C° 0 mm 2 mps 723 mmHg 60%
    18:00 +18°C° 0 mm 1 mps 723 mmHg 65%
    19:00 +15°C° 0 mm 1 mps 723 mmHg 71%
    20:00 +14°C° 0 mm 1 mps 723 mmHg 74%
    21:00 +13°C° 0 mm 1 mps 724 mmHg 77%
    22:00 +13°C° 0 mm 1 mps 724 mmHg 79%
    23:00 +12°C° 0 mm 1 mps 724 mmHg 81%

    Tomorrow, 23 May, Thursday

    Time Temperature Precipitation Wind Pressure Humidity
    00:00 +12°C° 0 mm 1 mps 724 mmHg 83%
    01:00 +10°C° 0 mm 2 mps 724 mmHg 85%
    02:00 +10°C° 0 mm 2 mps 724 mmHg 86%
    03:00 +10°C° 0 mm 2 mps 724 mmHg 87%
    04:00 +9°C° 0 mm 2 mps 724 mmHg 88%
    05:00 +12°C° 0 mm 1 mps 725 mmHg 82%
    06:00 +14°C° 0 mm 1 mps 725 mmHg 76%
    07:00 +15°C° 0 mm 1 mps 725 mmHg 71%
    08:00 +18°C° 0 mm 1 mps 725 mmHg 63%
    09:00 +18°C° 0 mm 2 mps 725 mmHg 55%
    10:00 +20°C° 0 mm 2 mps 726 mmHg 47%
    11:00 +20°C° 0 mm 2 mps 725 mmHg 46%
    12:00 +20°C° 0 mm 2 mps 725 mmHg 46%
    13:00 +20°C° 0 mm 2 mps 725 mmHg 45%
    14:00 +21°C° 0 mm 2 mps 724 mmHg 43%
    15:00 +21°C° 0 mm 2 mps 724 mmHg 42%
    16:00 +21°C° 0 mm 2 mps 724 mmHg 40%
    17:00 +20°C° 0 mm 2 mps 724 mmHg 48%
    18:00 +19°C° 0 mm 1 mps 724 mmHg 57%
    19:00 +16°C° 0 mm 1 mps 724 mmHg 65%
    20:00 +15°C° 0 mm 1 mps 725 mmHg 70%
    21:00 +13°C° 0 mm 1 mps 725 mmHg 75%
    22:00 +12°C° 0 mm 1 mps 725 mmHg 80%
    23:00 +11°C° 0 mm 1 mps 725 mmHg 81%

    Day after tomorrow, 24 May, Friday

    Time Temperature Precipitation Wind Pressure Humidity
    00:00 +11°C° 0 mm 1 mps 725 mmHg 81%
    01:00 +10°C° 0 mm 1 mps 725 mmHg 82%
    02:00 +10°C° 0 mm 1 mps 725 mmHg 82%
    03:00 +10°C° 0 mm 1 mps 725 mmHg 82%
    04:00 +9°C° 0 mm 1 mps 724 mmHg 82%
    05:00 +12°C° 0 mm 1 mps 724 mmHg 76%
    06:00 +14°C° 0 mm 1 mps 724 mmHg 69%
    07:00 +16°C° 0 mm 1 mps 724 mmHg 62%
    08:00 +19°C° 0 mm 1 mps 724 mmHg 55%
    09:00 +22°C° 0 mm 1 mps 725 mmHg 49%
    10:00 +22°C° 0 mm 0 mps 725 mmHg 42%
    11:00 +24°C° 0 mm 1 mps 724 mmHg 42%
    12:00 +23°C° 0 mm 1 mps 724 mmHg 43%
    13:00 +23°C° 0 mm 1 mps 724 mmHg 44%
    14:00 +23°C° 0 mm 1 mps 723 mmHg 45%
    15:00 +23°C° 0 mm 1 mps 723 mmHg 46%
    16:00 +23°C° 0 mm 1 mps 722 mmHg 47%
    17:00 +21°C° 0 mm 1 mps 722 mmHg 56%
    18:00 +20°C° 0 mm 1 mps 722 mmHg 64%
    19:00 +18°C° 0 mm 1 mps 722 mmHg 72%
    20:00 +15°C° 0 mm 0 mps 722 mmHg 77%
    21:00 +14°C° 0 mm 0 mps 723 mmHg 82%
    22:00 +12°C° 0 mm 0 mps 723 mmHg 88%
    23:00 +12°C° 0 mm 0 mps 723 mmHg 89%

    25 May, Saturday

    Time Temperature Precipitation Wind Pressure Humidity
    00:00 +12°C° 0 mm 0 mps 723 mmHg 90%
    01:00 +12°C° 0 mm 1 mps 723 mmHg 91%
    02:00 +12°C° 0 mm 1 mps 723 mmHg 91%
    03:00 +12°C° 0 mm 1 mps 722 mmHg 91%
    04:00 +11°C° 0 mm 1 mps 722 mmHg 91%
    05:00 +13°C° 0 mm 1 mps 723 mmHg 84%
    06:00 +16°C° 0 mm 1 mps 723 mmHg 76%
    07:00 +17°C° 0 mm 0 mps 723 mmHg 69%
    08:00 +21°C° 0 mm 1 mps 723 mmHg 61%
    09:00 +23°C° 0 mm 1 mps 724 mmHg 54%
    10:00 +25°C° 0 mm 1 mps 724 mmHg 46%
    11:00 +25°C° 0.3 mm 1 mps 724 mmHg 48%
    12:00 +25°C° 0.3 mm 2 mps 723 mmHg 50%
    13:00 +24°C° 0.3 mm 2 mps 723 mmHg 52%
    14:00 +24°C° 0.9 mm 2 mps 723 mmHg 56%
    15:00 +24°C° 0.9 mm 1 mps 723 mmHg 60%
    16:00 +23°C° 0.9 mm 1 mps 722 mmHg 64%
    17:00 +22°C° 0.7 mm 1 mps 722 mmHg 70%
    18:00 +20°C° 0.7 mm 1 mps 722 mmHg 76%
    19:00 +19°C° 0.7 mm 1 mps 722 mmHg 82%
    20:00 +18°C° 0.4 mm 1 mps 722 mmHg 85%
    21:00 +16°C° 0.4 mm 1 mps 723 mmHg 88%
    22:00 +15°C° 0.4 mm 2 mps 723 mmHg 91%
    23:00 +15°C° 0.2 mm 1 mps 723 mmHg 91%

    26 May, Sunday

    Time Temperature Precipitation Wind Pressure Humidity
    00:00 +14°C° 0.2 mm 1 mps 723 mmHg 91%
    01:00 +14°C° 0.2 mm 1 mps 723 mmHg 92%
    02:00 +14°C° 0.1 mm 1 mps 723 mmHg 91%
    03:00 +14°C° 0.1 mm 1 mps 723 mmHg 91%
    04:00 +14°C° 0.1 mm 1 mps 723 mmHg 91%
    05:00 +15°C° 0 mm 1 mps 723 mmHg 87%
    06:00 +16°C° 0 mm 1 mps 723 mmHg 83%
    07:00 +19°C° 0 mm 1 mps 724 mmHg 80%
    08:00 +21°C° 0.2 mm 1 mps 724 mmHg 71%
    09:00 +21°C° 0.2 mm 0 mps 724 mmHg 63%
    10:00 +23°C° 0.2 mm 0 mps 724 mmHg 55%
    11:00 +25°C° 0.5 mm 1 mps 724 mmHg 55%
    12:00 +25°C° 0.5 mm 1 mps 724 mmHg 55%
    13:00 +26°C° 0.5 mm 1 mps 723 mmHg 56%
    14:00 +25°C° 0.8 mm 1 mps 723 mmHg 60%
    15:00 +24°C° 0.8 mm 1 mps 723 mmHg 64%
    16:00 +23°C° 0.8 mm 1 mps 723 mmHg 68%
    17:00 +22°C° 0.9 mm 1 mps 723 mmHg 74%
    18:00 +20°C° 0.9 mm 1 mps 723 mmHg 79%
    19:00 +19°C° 0.9 mm 1 mps 723 mmHg 85%
    20:00 +18°C° 0.3 mm 1 mps 723 mmHg 86%
    21:00 +16°C° 0.3 mm 1 mps 723 mmHg 88%
    22:00 +15°C° 0.3 mm 1 mps 724 mmHg 90%
    23:00 +15°C° 0.1 mm 1 mps 723 mmHg 90%

    27 May, Monday

    Time Temperature Precipitation Wind Pressure Humidity
    00:00 +14°C° 0.1 mm 1 mps 723 mmHg 91%
    01:00 +14°C° 0.1 mm 1 mps 723 mmHg 91%
    02:00 +14°C° 0 mm 1 mps 723 mmHg 91%
    03:00 +13°C° 0 mm 1 mps 723 mmHg 91%
    04:00 +13°C° 0 mm 1 mps 723 mmHg 91%
    05:00 +15°C° 0 mm 1 mps 723 mmHg 87%
    06:00 +15°C° 0 mm 0 mps 723 mmHg 83%
    07:00 +17°C° 0 mm 0 mps 723 mmHg 79%
    08:00 +19°C° 0 mm 0 mps 723 mmHg 72%
    09:00 +22°C° 0 mm 1 mps 723 mmHg 66%
    10:00 +24°C° 0 mm 1 mps 723 mmHg 59%
    11:00 +24°C° 0 mm 1 mps 723 mmHg 56%
    12:00 +25°C° 0 mm 2 mps 722 mmHg 52%
    13:00 +26°C° 0 mm 2 mps 722 mmHg 49%
    14:00 +26°C° 0.1 mm 2 mps 722 mmHg 47%
    15:00 +26°C° 0.1 mm 2 mps 721 mmHg 46%
    16:00 +27°C° 0.1 mm 2 mps 721 mmHg 45%
    17:00 +25°C° 0 mm 2 mps 721 mmHg 54%
    18:00 +23°C° 0 mm 1 mps 721 mmHg 62%
    19:00 +22°C° 0 mm 1 mps 721 mmHg 71%
    20:00 +20°C° 0 mm 1 mps 721 mmHg 74%
    21:00 +19°C° 0 mm 1 mps 721 mmHg 78%
    22:00 +18°C° 0 mm 1 mps 721 mmHg 82%
    23:00 +16°C° 0 mm 1 mps 721 mmHg 84%
    Show more